Location: Dumpton Point
(51.3500°N, 1.4433°E)
Time: 18:56:15
(UTC+00:00)

Cosmos 2154 Rocket - Pass Details

Date: 09 April 2020
Orbit: 965 x 997 km, 82.9° (Epoch: 24 May)

Event Time Altitude Azimuth Distance (km) Brightness Sun altitude
Rises 19:21:22 0° 350° (N) 3,731 7.5 -6.8°
Reaches altitude 10° 19:23:55 10° 352° (N) 2,777 6.8 -7.1°
Maximum altitude 19:30:19 79° 79° (E) 1,017 4.1 -8.0°
Drops below altitude 10° 19:36:38 10° 167° (SSE) 2,743 6.0 -8.9°
Sets 19:39:08 0° 168° (SSE) 3,683 6.7 -9.3°
